Regional Weather Roundup
Issued by NWS Boston, MA

Current Version | Previous Version | Text Only | Print | Product List | Glossary Off
Versions: 1 2 3 4 5 6 7 8 9 10 11 12 13 14 15 16 17 18 19 20 21 22 23 24 25 26 27
000 ASUS41 KBOX 191610 RWRBOX REGIONAL WEATHER ROUNDUP NATIONAL WEATHER SERVICE TAUNTON MA 1100 AM EST FRI JAN 19 2018 NOTE: "FAIR" INDICATES FEW OR NO CLOUDS BELOW 12,000 FEET WITH NO SIGNIFICANT WEATHER AND/OR OBSTRUCTIONS TO VISIBILITY. MAZALL-191700- EASTERN MASSACHUSETTS CITY SKY/WX TMP DP RH WIND PRES REMARKS BOSTON PTSUNNY 30 19 63 W9 29.98F WCI 22 BEVERLY FAIR 30 19 63 W8 29.96F WCI 22 LAWRENCE FAIR 31 19 61 W9 29.97F WCI 23 BEDFORD CLOUDY 29 18 63 W7 29.96F WCI 22 BLUE HILL N/A 26 18 71 W6 29.93F WCI 19 NORWOOD CLOUDY 31 18 58 W5 29.98F WCI 26 MARSHFIELD CLOUDY 30 19 64 W7 29.98F WCI 23 PLYMOUTH FAIR 32 19 58 W7 29.98F WCI 26 TAUNTON PTSUNNY 31 17 56 W7 29.98F WCI 24 NEW BEDFORD PTSUNNY 30 18 60 W13 29.99F WCI 20 $$ MAZALL-191700- CAPE COD AND THE ISLANDS CITY SKY/WX TMP DP RH WIND PRES REMARKS FALMOUTH NOT AVBL HYANNIS FAIR 32 19 58 SW9 29.97F WCI 24 CHATHAM FAIR 31 20 63 VRB3 29.99F PROVINCETOWN FAIR 33 22 63 W9 29.99S WCI 25 NANTUCKET FAIR 31 21 66 W14 30.00F WCI 21 MARTHAS VNYRD FAIR 32 21 64 W16G22 30.00F WCI 21 $$ MAZALL-191700- CENTRAL AND WESTERN MASSACHUSETTS CITY SKY/WX TMP DP RH WIND PRES REMARKS WORCESTER PTSUNNY 25 14 63 W13 29.92F WCI 14 FITCHBURG CLOUDY 32 20 61 NW7 29.96F WCI 26 ORANGE FAIR 26 18 71 CALM 29.97S SPRINGFIELD MOSUNNY 28 16 61 SW8 29.98F WCI 20 WESTFIELD FAIR 26 16 65 S6 29.99F WCI 19 NORTH ADAMS CLOUDY 27 15 61 W8 29.98S WCI 19 PITTSFIELD CLOUDY 26 13 57 W8 29.93F WCI 18 $$ RIZALL-191700- RHODE ISLAND CITY SKY/WX TMP DP RH WIND PRES REMARKS PROVIDENCE PTSUNNY 32 18 56 NW9 30.00F WCI 24 NEWPORT FAIR 32 17 54 W10 29.99F WCI 24 BLOCK ISLAND FAIR 33 22 63 W14G22 30.02F WCI 23 SMITHFIELD FAIR N/A N/A N/A W12G17 29.97F WESTERLY FAIR 32 19 58 SW9 30.03F WCI 24 $$ CTZALL-191700- CONNECTICUT CITY SKY/WX TMP DP RH WIND PRES REMARKS BRADLEY INTL PTSUNNY 28 16 60 SE5 30.01F WCI 23 HARTFORD FAIR 29 15 56 SW3 30.03F BRIDGEPORT FAIR 30 15 53 W8 30.05F WCI 22 DANBURY FAIR 26 15 63 SW8 30.03F WCI 18 GROTON FAIR 32 17 54 VRB6 30.02F WCI 26 NEW HAVEN PTSUNNY 30 15 53 W5 30.04F WCI 25 CHESTER FAIR 32 14 47 W7 30.01F WCI 26 MERIDEN FAIR 29 14 53 NW5 30.03F WCI 24 WILLIMANTIC FAIR 30 16 56 W8 30.01F WCI 22 OXFORD FAIR 24 14 65 W8 30.00F WCI 15 $$ MEZ002-015-021-024-NHZ003-005-008-011-012-014-VTZ005-008-191700- NORTHERN NEW ENGLAND CITY SKY/WX TMP DP RH WIND PRES REMARKS PORTLAND ME PTSUNNY 27 22 81 VRB3 29.94F BANGOR ME CLOUDY 25 20 81 S3 29.92F CONCORD NH CLOUDY 28 20 71 W7 29.95S WCI 21 MANCHESTER NH PTSUNNY 30 19 63 CALM 29.94F NASHUA NH CLOUDY 31 21 66 NW5 29.96F WCI 26 PORTSMOUTH NH MOSUNNY 29 19 66 CALM 29.93F JAFFREY NH CLOUDY 26 19 74 VRB5 29.91F WCI 20 KEENE NH CLOUDY 28 22 78 CALM 29.96F BURLINGTON VT CLOUDY 26 18 71 S10 29.92S WCI 16 MT. WASHINGTON CLOUDY 19 18 93 W18 N/A WCI 4 $$ NYZ052-076-191700- EASTERN NEW YORK CITY SKY/WX TMP DP RH WIND PRES REMARKS ALBANY CLOUDY 23 13 65 S6 30.02F WCI 16 NEW YORK CITY CLOUDY 33 12 41 W13 30.07F WCI 24 $$ ANZALL-191700- MARINE OBSERVATIONS STATION/POSITION TIME TEMP WIND PRES VSBY WAVE AIR SEA DIR/SP/G HT/PER (UTC) (F) (DEG/KT/KT) (MB) (MI) (FT/S) BOSTON BUOY 1550 29 40 260/ 12/ 16 1014.6F 2/10 BUZZARDS BAY 1500 29 280/ 17/ 19 1016.9R NANTUCKET SOUND 1550 28 36 290/ 14/ 16 1015.7S 2/ 3 MASS BAY-STELLWA 1504 28 38 1014.2S 2/ 4 ISLE OF SHOALS 1500 27 280/ 9/ 9 1014.4R S OF BLOCK IS 1543 42 N/A 5/ 5 $$ ......................KEY......................... SKY/WX - SKY CONDITION/PRESENT WEATHER TMP - TEMPERATURE IN FAHRENHEIT DWPT - DEWPOINT IN FAHRENHEIT RH - RELATIVE HUMIDITY IN PERCENT WIND - DIRECTION AND SPEED IN MPH PRES - MEAN SEA LEVEL PRESSURE IN INCHES OF HG WCI - WIND CHILL INDEX VSB - VISIBILITY IN MILES HX - HEAT INDEX TC - TEMPERATURE IN CELSIUS VRB - VARIABLE WIND DIRECTION N/A - NOT AVAILABLE

USA.gov is the U.S. government's official web portal to all federal, state and local government web resources and services.